Погода в Гудермесе

Погода в Гудермесе : погода сейчас, прогноз погоды и архив. Всё, что Вы хотите узнать о погоде в Гудермесе!

Поиск расширенной информации на нашем сайте:

Другие новости

Новости СМИ2

Главная страница сайта

Новости сайта

02.10.2013

Напоминаем, что на нашем новом сайте вы можете получить высокодетализированные прогнозы погоды по пунктам России, СНГ и мира (включающие важные для авиации метеовеличины, такие как направление и скорость ветра, видимость, явления погоды, количество и форма облачности, нижняя и верхняя граница облачности), а также ознакомиться с разнообразными материалами по авиационной метеорологии и подборкой полезных ссылок на эту тему.

Сайт Метеоцентр.Азия посвящён разработке технологий оптимизации авиаметеорологического обслуживания, включая проектирование и перспективное создание нескольких автоматизированных авиаметеорологических систем:
- система выпуска высокодетальных прогностических карт явлений погоды для нижнего воздушного пространства по России и ближнему зарубежью;
- система верификации прогнозов TAF (выпускаемых синоптиками официальных АМСГ РФ и ближнего зарубежья) и AUTOTAF (выпускаемых сайтом Метеоцентр.Азия) - выявление ошибок, онлайн-сопоставление с фактической погодой METAR, автоматическое внесение коррективов в прогнозы при резком отклонении фактической погоды от прогноза, подсчёт оправдываемости прогнозов по элементам и в целом;
- система обработки, анализа и отображения авиаметеорологической информации для применения провайдерами метеорологической информации.


Погода в Гудермесе - сегодня

Время (UTC), дата Ветер
(°,м/с) 
Видим.   Явления Облачность Т
(°С)
Тd
(°С)
f(%) Тe
(°С)
Pmin
(гПа)
dP
(гПа)
Po
(мм)
O2
(г/м3)
Тmin Tmax R s Состояние
почвы
00 22.03.17 240 (ЮЗ) 10 км    9/9 600 м 
[Sc]
+6.6 -0.3 61 +6  1015.4  0.7  755  297           
03 22.03.17 250 (З) 10 км    9/9 600 м 
[Sc]
+6.6 -1.7 55 +5  1016.6  1.1  755  297  +6.5        влажная 
06 22.03.17 240 (ЮЗ) 20000 м    8/0 средняя 
[Ac lent]
+8 -2.4 48 +7  1016.6  755  296           
09 22.03.17 300 (СЗ) 20000 м    9/9 600 м 
[Sc]
+11.2 -3.2 36 +10  1015.2  -1.2  755  292           
12 22.03.17 280 (З) 4{12}  20000 м    9/9 600 м 
[Sc]
+9.1 -0 53 +8  1015.7  0.4  755  294           
15 22.03.17 270 (З) 4{11}  4000 м  слаб. ливневой дождь  10/10 300 м кучево-дожд. 
[Cb cap]
+5.8 +2.7 80 +4  1018.3  2.5  757  298    +11.6     
18 22.03.17 230 (ЮЗ) 4000 м  слаб. ливневой дождь  10/10 300 м кучево-дожд. 
[Cb cap]
+5.3 +3.2 86 +4  1019.3  0.9  757  299           
21 22.03.17 240 (ЮЗ) 4000 м  слаб. ливневой дождь  10/10 300 м кучево-дожд. 
[Cb cap]
+3.9 +2.7 92 +3  1019.4  0.1  758  301           
00 23.03.17 350 (С) 4000 м  слаб. дождь{ливн. осадки}  10/10 300 м 
[Ns]
+3.4 +2.5 94 +4  1019.3  0.1  757  301           
03 23.03.17 010 (С) 4000 м  слаб. дождь  10/10 300 м 
[Ns]
+2.1 +1.4 95 +3  1020.8  1.4  758  303  +2.1    14    мокрая 
06 23.03.17 090 (В) 4000 м  слаб. снег{дождь}  10/10 300 м 
[Ns]
+0.8 +0.1 95 +1  1022.6  1.8  760  305  +0.8         
09 23.03.17 300 (СЗ) 4000 м  слаб. дождь{снег}  10/10 300 м 
[Ns]
+0.9 +0.2 95 +2  1023.7  1.1  761  305           
12 23.03.17 290 (З) 10 км  {снег, дождь}  10/10 300 м 
[Ns]
+2.8 +1.2 89 +4  1024.3  0.6  761  303           
15 23.03.17 230 (ЮЗ) 10 км    10/10 300 м 
[Ns]
+3.3 +1.2 86 +4  1025.6  1.3  762  303    +3.4     
18 23.03.17 260 (З) 4000 м  слаб. морось  10/10 200 м 
[St]
+3.4 +2 91 +4  1026.5  763  303           
21 23.03.17 290 (З) 4000 м  в посл. час дождь{морось}  10/10 200 м 
[St]
+3.1 +1.8 91 +4  1027  0.4  763  304           
00 24.03.17 тихо ()   4000 м  дымка{морось}  10/10 200 м 
[St]
+3.3 +2.1 92 +3  1027.1  0.1  763  304           
03 24.03.17 тихо ()   4000 м  дымка  10/10 300 м 
[St]
+3.4 +2.2 92 +3  1027.8  0.7  764  304  +2.9    0.5    мокрая 
06 24.03.17 090 (В) 10 км    9/9 600 м 
[St]
+4.9 +2.5 84 +6  1028.5  0.7  764  302           
09 24.03.17 030 (СВ) 20000 м    9/9 1000 м 
[Sc]
+7.7 +1.6 65 +8  1027.3  -1.1  763  299           
12 24.03.17 030 (СВ) 20000 м    9/9 1000 м 
[Sc]
+9 +1.8 61 +10  1025.8  -1.4  762  297           
15 24.03.17 090 (В) 20000 м    3/3 1000 м 
[Sc]
+8 +2.5 68 +8  1025.5  -0.3  762  298    +9.8       
18 24.03.17 100 (В) 10 км    ясно 
+4 +1.8 86 +5  1025.4  -0.3  762  302           
21 24.03.17 тихо ()   10 км    ясно 
+1.8 +0.6 92 +2  1023.2  -2.2  760  304           
00 25.03.17 тихо ()   10 км    ясно 
-0 -0.9 94 1021.5  -1.8  759  306           
Время (UTC), дата Ветер
(°,м/с) 
Видим.   Явления Облачность Т
(°С)
Тd
(°С)
f(%) Тe
(°С)
Pmin
(гПа)
dP
(гПа)
Po
(мм)
O2
(г/м3)
Тmin Tmax R s Состояние
почвы

Для получения пояснительной информации подведите курсор к названию столбца.

ПОГОДА в Гудермесе - архив

Всё, что Вы хотите узнать о погоде в Гудермесе - удобно и подробно!

Выберите нужную дату (начиная с 1 января 2015* года) и нажмите кнопку "Найти".
Будут отображены архивные сводки погоды по пункту Гудермес, начиная с указанной даты.


Отображать данные в формате CSV (для использования в таблицах Excel)


Внимание! Наш архив погоды предназначен исключительно для личного некоммерческого использования в познавательных целях. Если Вам необходимы официальные справки о состоянии погоды (для производственных, юридических, коммерческих и т.п. целей), обращайтесь в органы Росгидромета.

*Примечание: данная дата относится к архиву по метеостанциям СССР (Россия, СНГ, Балтия).
Архив по метеостанциям Зарубежной Европы и Азии (кроме Китая) хранится 10 дней, по другим регионам земного шара (Китай, Африка, Америка, Австралия, Океания) - 1 день.

Гудермес - район местоположения метеостанции


Название, широта, долгота, высота метеостанции:
Гудермес 43.3°ш. 46.1°д. 75 м над ур. моря [Российская Федерация]

Дополнительная информация

В oтличие oт бoльшинства пoгoдных сайтoв мы публикуем пoдрoбную метеoинфoрмацию в детальнoм прoфессиoнальнoм фoрмате.

Характеристики температуры и влажнoсти вoздуха измеряются на высoте 2 м в тени вдали oт зданий и деревьев.
Скoрoсть ветра измеряется на высoте 10 м (на урoвне рoста челoвека скoрoсть ветра ниже в 1.5-2 раза). Если метеoстанция нахoдится в гoрoде или в лесу, тo скoрoсть ветра занижена на 2-4 м/с пo сравнению с oткрытым местoм. Скoрoсть ветра над акватoриями крупных рек и oзёр, а также на вершинах хoлмoв на 2-5 м/с выше, чем в oбычных услoвиях.
Атмoсфернoе давление в разных тoчках местнoсти мoжет значительнo oтличаться oт давления на метеoстанции, в зависимoсти oт услoвий рельефа (при пoдъёме на 10 м давление пoнижается примернo на 1 мм рт.ст.).